Regional Weather Roundup
Issued by NWS

Home | Current Version | Previous Version | Text Only | Print | Product List | Glossary Off
Versions: 1 2 3 4 5 6 7 8 9 10 11 12 13 14 15 16 17 18 19 20 21 22 23 24 25 26 27 28 29 30 31 32 33 34 35 36 37 38 39 40 41 42 43 44 45 46 47 48 49

000
ASUS45 KSLC 242310
RWRUT

UTAH REGIONAL WEATHER ROUNDUP
NATIONAL WEATHER SERVICE SALT LAKE CITY UT
400 PM MST SAT JAN 24 2015

UTZ001>011-023>025-250000-

NORTHERN UTAH

CITY           SKY/WX    TMP DP  RH WIND       PRES   REMARKS
BRIGHAM CITY   CLOUDY    35  25  68 CALM      30.46F
HILL AFB       CLOUDY    37  17  44 CALM      30.43F
LOGAN          CLOUDY    32  24  72 SW5       30.45F WCI  27
OGDEN          CLOUDY    38  23  55 NW3       30.44F
PROVO AIRPORT  PTSUNNY   36  21  55 VRB3      30.47R
SALT LAKE CITY CLOUDY    39  25  57 NW7       30.45S WCI  34
VERNAL         MOSUNNY   37  13  37 SW3       30.32S
WENDOVER       SUNNY     39  27  60 E6        30.43R WCI  35
HEBER CITY     CLOUDY    34  19  55 CALM      30.42R
WEST JORDAN    CLOUDY    37  25  60 NW13      30.46R WCI  29

$$

UTZ012>022-026-027-250000-

SOUTHERN/CENTRAL UTAH

CITY           SKY/WX    TMP DP  RH WIND       PRES   REMARKS
BLANDING       SUNNY     46  16  30 SW5       30.35R
BRYCE CANYON   SUNNY     45  17  32 NE10      30.33S
CEDAR CITY     SUNNY     48  19  31 NW7       30.34F
DELTA          MOSUNNY   43  22  44 NW3       30.43S
MILFORD        SUNNY     45  24  43 N15       30.39R
MOAB/CYNLANDS  SUNNY     43  15  32 CALM      30.31F
PRICE          SUNNY     42  18  37 SE6       30.30R
ST GEORGE      CLEAR     57  21  24 SW3       30.27F
KANAB          SUNNY     55  19  24 E8        30.29F

$$

REGIONAL REPORTS     COLORADO/ARIZONA

CITY           SKY/WX    TMP DP  RH WIND       PRES   REMARKS
CRAIG, CO      CLOUDY    29  16  58 CALM      30.30R
GRAND JUNCTION CLOUDY    40  11  30 CALM      30.33F
RIFLE          CLOUDY    36  11  35 CALM      30.34R
MONTROSE       CLOUDY    40  11  30 NW7       30.34R
CORTEZ         SUNNY     43  17  35 W13       30.26S
PAGE, AZ       NOT AVBL
GRAND CANYON   SUNNY     49  11  21 NE8       30.29F
KINGMAN        SUNNY     62  15  16 N14       30.19F
FLAGSTAFF      SUNNY     47  10  22 NE10      30.27F

$$

REGIONAL REPORTS    NEVADA/IDAHO/WYOMING

CITY           SKY/WX    TMP DP  RH WIND       PRES   REMARKS
LAS VEGAS, NV  SUNNY     67  19  16 E3        30.19F
ELY            SUNNY     50  21  32 N15       30.39F
ELKO           SUNNY     50  27  40 SW7       30.41F
POCATELLO, ID  CLOUDY    32  29  88 NE8       30.44R WCI  25
BURLEY         CLOUDY    41  31  67 CALM      30.40S
EVANSTON, WY   CLOUDY    34  26  72 SW14      30.39S WCI  25
ROCK SPRINGS   CLOUDY    36  24  62 W36G43    30.27R WCI  22
KEMMERER       CLOUDY    30  27  86 W20       30.36R WCI  18

$$


USA.gov is the U.S. government's official web portal to all federal, state and local government web resources and services.